Location: Burera
(21.3780°N, 81.9534°E)
Time: 11:56:03
(UTC+00:00)

deb Chang Zheng 4 - Pass Details

Date: 13 August 2020
Orbit: 604 x 624 km, 98.6° (Epoch: 21 September)

Event Time Altitude Azimuth Distance (km) Brightness Sun altitude
Rises 22:43:38 0° 8° (N) 2,903 7.5 -19.8°
Reaches altitude 10° 22:45:51 10° 5° (N) 1,995 6.5 -19.3°
Maximum altitude 22:50:09 66° 283° (WNW) 681 3.5 -18.4°
Enters shadow 22:52:12 30° 210° (SSW) 1,125 4.4 -17.9°
